BON105K FAOR-FAGG

Flight info

Callsign BON105K
Flight time 1h 29m
Altitude 36000
Route HGV UZ16 NEVEN UQ9 XALIN XALIN1B
Aircraft B738/M-SDE2E3FGHIRWXY/LB1

Departure

Time 2026-05-06 09:53
Airport O.R. Tambo International Airport (FAOR)

Arrival

Time 2026-05-06 11:23
Airport George Airport (FAGG)
Time Latitude Longitude Altitude Speed Heading
2026-05-06 09:13 -26.13683 28.23107 5550 ft 0 kts
2026-05-06 09:44 -26.13685 28.23107 5546 ft 2 kts
2026-05-06 09:44 -26.13702 28.23105 5551 ft 4 kts
2026-05-06 09:44 -26.13724 28.23103 5547 ft 4 kts
2026-05-06 09:44 -26.13742 28.23093 5548 ft 4 kts 80°
2026-05-06 09:45 -26.13741 28.23066 5548 ft 3 kts 96°
2026-05-06 09:45 -26.13741 28.23061 5546 ft 0 kts 96°
2026-05-06 09:48 -26.13741 28.23062 5546 ft 1 kts 96°
2026-05-06 09:48 -26.13744 28.23089 5547 ft 6 kts 96°
2026-05-06 09:49 -26.13749 28.23148 5546 ft 10 kts 96°
2026-05-06 09:49 -26.13759 28.23240 5546 ft 14 kts 96°
2026-05-06 09:49 -26.13819 28.23325 5546 ft 17 kts 177°
2026-05-06 09:49 -26.13941 28.23288 5551 ft 19 kts 196°
2026-05-06 09:50 -26.14075 28.23247 5551 ft 21 kts 195°
2026-05-06 09:50 -26.14214 28.23205 5551 ft 20 kts 192°
2026-05-06 09:50 -26.14350 28.23226 5559 ft 20 kts 165°
2026-05-06 09:50 -26.14481 28.23264 5561 ft 19 kts 165°
2026-05-06 09:51 -26.14597 28.23322 5565 ft 18 kts 118°
2026-05-06 09:51 -26.14621 28.23410 5564 ft 8 kts 105°
2026-05-06 09:51 -26.14613 28.23445 5565 ft 2 kts 20°
2026-05-06 09:51 -26.14610 28.23446 5565 ft 0 kts 15°
2026-05-06 09:52 -26.14609 28.23446 5565 ft 4 kts 14°
2026-05-06 09:52 -26.14348 28.23525 5566 ft 74 kts 15°
2026-05-06 09:52 -26.13636 28.23747 5557 ft 137 kts 16°
2026-05-06 09:53 -26.12551 28.24092 5604 ft 183 kts 13°
2026-05-06 09:53 -26.11297 28.24521 6265 ft 191 kts 11°
2026-05-06 09:53 -26.10000 28.24983 6893 ft 203 kts 13°
2026-05-06 09:53 -26.08654 28.25520 7527 ft 209 kts 21°
2026-05-06 09:54 -26.07407 28.26527 7802 ft 242 kts 48°
2026-05-06 09:54 -26.06780 28.28385 8023 ft 274 kts 88°
2026-05-06 09:54 -26.07216 28.30473 8325 ft 295 kts 122°
2026-05-06 09:54 -26.08668 28.32068 8872 ft 301 kts 156°
2026-05-06 09:55 -26.10653 28.32569 9806 ft 291 kts 187°
2026-05-06 09:55 -26.12661 28.32364 10575 ft 299 kts 192°
2026-05-06 09:55 -26.14883 28.32053 10804 ft 328 kts 192°
2026-05-06 09:55 -26.17203 28.31753 11171 ft 349 kts 191°
2026-05-06 09:56 -26.19661 28.31488 11806 ft 360 kts 191°
2026-05-06 09:56 -26.22179 28.31265 12649 ft 366 kts 190°
2026-05-06 09:56 -26.24755 28.31069 13412 ft 375 kts 190°
2026-05-06 09:56 -26.27386 28.30886 14145 ft 382 kts 190°
2026-05-06 09:57 -26.30063 28.30716 14809 ft 390 kts 190°
2026-05-06 09:57 -26.32802 28.30546 15418 ft 399 kts 191°
2026-05-06 09:57 -26.35606 28.30375 16052 ft 407 kts 191°
2026-05-06 09:57 -26.38456 28.30199 16687 ft 414 kts 191°
2026-05-06 09:58 -26.41366 28.30030 17305 ft 422 kts 191°
2026-05-06 09:58 -26.44328 28.29863 17902 ft 430 kts 192°
2026-05-06 09:58 -26.47339 28.29676 18471 ft 437 kts 193°
2026-05-06 09:58 -26.50400 28.29482 19013 ft 442 kts 193°
2026-05-06 09:59 -26.53480 28.29291 19667 ft 445 kts 193°
2026-05-06 09:59 -26.56577 28.29101 20269 ft 448 kts 193°
2026-05-06 09:59 -26.59708 28.28909 20809 ft 453 kts 193°
2026-05-06 09:59 -26.62875 28.28715 21345 ft 458 kts 193°
2026-05-06 10:00 -26.66050 28.28520 21881 ft 462 kts 193°
2026-05-06 10:00 -26.69281 28.28285 22417 ft 462 kts 197°
2026-05-06 10:00 -26.72411 28.27646 22920 ft 453 kts 205°
2026-05-06 10:00 -26.75318 28.26798 23409 ft 455 kts 207°
2026-05-06 10:01 -26.78375 28.25851 23852 ft 458 kts 207°
2026-05-06 10:01 -26.81450 28.24889 24287 ft 462 kts 207°
2026-05-06 10:01 -26.84577 28.23919 24610 ft 468 kts 207°
2026-05-06 10:01 -26.87727 28.22960 25082 ft 470 kts 207°
2026-05-06 10:02 -26.90884 28.22015 25582 ft 471 kts 207°
2026-05-06 10:02 -26.94055 28.21074 26068 ft 472 kts 206°
2026-05-06 10:02 -26.97240 28.20131 26517 ft 474 kts 206°
2026-05-06 10:02 -27.00435 28.19184 26930 ft 476 kts 206°
2026-05-06 10:03 -27.03646 28.18230 27336 ft 479 kts 206°
2026-05-06 10:03 -27.06876 28.17270 27740 ft 481 kts 206°
2026-05-06 10:03 -27.10114 28.16306 28187 ft 483 kts 207°
2026-05-06 10:03 -27.13377 28.15334 28555 ft 486 kts 207°
2026-05-06 10:04 -27.16649 28.14359 28936 ft 488 kts 207°
2026-05-06 10:04 -27.19936 28.13380 29352 ft 489 kts 207°
2026-05-06 10:04 -27.23231 28.12398 29743 ft 491 kts 206°
2026-05-06 10:04 -27.26537 28.11411 30112 ft 492 kts 206°
2026-05-06 10:05 -27.29855 28.10420 30405 ft 494 kts 206°
2026-05-06 10:05 -27.33191 28.09422 30649 ft 497 kts 206°
2026-05-06 10:05 -27.36545 28.08418 30879 ft 500 kts 206°
2026-05-06 10:05 -27.39925 28.07406 31098 ft 505 kts 206°
2026-05-06 10:06 -27.43279 28.06402 31391 ft 506 kts 206°
2026-05-06 10:06 -27.46626 28.05271 31771 ft 495 kts 212°
2026-05-06 10:06 -27.49726 28.03713 32166 ft 481 kts 220°
2026-05-06 10:06 -27.52503 28.01729 32492 ft 468 kts 227°
2026-05-06 10:07 -27.55142 27.99583 32781 ft 468 kts 227°
2026-05-06 10:07 -27.57772 27.97413 33063 ft 469 kts 227°
2026-05-06 10:07 -27.60412 27.95241 33394 ft 470 kts 227°
2026-05-06 10:07 -27.63055 27.93085 33722 ft 470 kts 227°
2026-05-06 10:08 -27.65717 27.90929 34040 ft 471 kts 226°
2026-05-06 10:08 -27.68382 27.88780 34354 ft 472 kts 226°
2026-05-06 10:08 -27.71058 27.86626 34579 ft 473 kts 226°
2026-05-06 10:08 -27.73732 27.84475 34883 ft 472 kts 226°
2026-05-06 10:09 -27.76383 27.82350 35513 ft 458 kts 226°
2026-05-06 10:09 -27.78870 27.80378 36980 ft 414 kts 226°
2026-05-06 10:09 -27.81131 27.78594 38314 ft 383 kts 227°
2026-05-06 10:09 -27.83302 27.76842 38121 ft 386 kts 227°
2026-05-06 10:10 -27.87587 27.73334 38067 ft 377 kts 227°
2026-05-06 10:10 -27.91801 27.69907 38034 ft 370 kts 228°
2026-05-06 10:11 -27.95987 27.66510 38013 ft 370 kts 227°
2026-05-06 10:11 -27.98089 27.64804 37912 ft 376 kts 227°
2026-05-06 10:11 -28.00242 27.63054 37656 ft 390 kts 227°
2026-05-06 10:12 -28.02499 27.61261 37321 ft 406 kts 226°
2026-05-06 10:12 -28.04883 27.59402 37120 ft 418 kts 225°
2026-05-06 10:12 -28.09725 27.55676 37461 ft 421 kts 225°
2026-05-06 10:13 -28.12145 27.53817 37702 ft 420 kts 225°
2026-05-06 10:13 -28.14559 27.51954 37865 ft 421 kts 225°
2026-05-06 10:13 -28.19392 27.48198 38021 ft 427 kts 225°
2026-05-06 10:14 -28.24370 27.44313 38054 ft 437 kts 224°
2026-05-06 10:14 -28.29406 27.40381 38041 ft 445 kts 224°
2026-05-06 10:15 -28.34529 27.36381 38035 ft 452 kts 224°
2026-05-06 10:15 -28.39719 27.32323 38039 ft 458 kts 224°
2026-05-06 10:16 -28.45033 27.28167 38014 ft 460 kts 224°
2026-05-06 10:16 -28.50318 27.24027 38020 ft 462 kts 224°
2026-05-06 10:17 -28.55591 27.19891 38016 ft 461 kts 224°
2026-05-06 10:17 -28.60814 27.15786 38029 ft 461 kts 224°
2026-05-06 10:18 -28.66049 27.11666 38010 ft 460 kts 224°
2026-05-06 10:18 -28.71297 27.07531 38002 ft 459 kts 224°
2026-05-06 10:19 -28.76578 27.03364 37996 ft 457 kts 224°
2026-05-06 10:19 -28.81808 26.99234 37998 ft 456 kts 224°
2026-05-06 10:20 -28.86987 26.95143 38001 ft 455 kts 224°
2026-05-06 10:20 -28.92167 26.91046 37994 ft 455 kts 224°
2026-05-06 10:21 -28.97378 26.86915 38030 ft 457 kts 224°
2026-05-06 10:21 -29.02623 26.82752 37989 ft 458 kts 224°
2026-05-06 10:22 -29.07863 26.78590 37981 ft 459 kts 224°
2026-05-06 10:22 -29.13112 26.74414 37981 ft 461 kts 224°
2026-05-06 10:23 -29.18382 26.70217 37975 ft 463 kts 224°
2026-05-06 10:23 -29.23674 26.65998 37959 ft 464 kts 224°
2026-05-06 10:24 -29.28988 26.61757 37971 ft 465 kts 224°
2026-05-06 10:24 -29.34281 26.57526 37961 ft 465 kts 224°
2026-05-06 10:25 -29.39591 26.53264 37960 ft 464 kts 224°
2026-05-06 10:25 -29.44885 26.49010 37950 ft 463 kts 223°
2026-05-06 10:26 -29.50158 26.44792 37954 ft 461 kts 223°
2026-05-06 10:26 -29.55337 26.40642 37943 ft 458 kts 223°
2026-05-06 10:27 -29.60611 26.36398 37954 ft 457 kts 223°
2026-05-06 10:27 -29.65825 26.32203 37947 ft 457 kts 223°
2026-05-06 10:28 -29.70147 26.28717 37946 ft 458 kts 223°
2026-05-06 10:28 -29.76205 26.23816 37971 ft 460 kts 222°
2026-05-06 10:29 -29.81483 26.19544 37962 ft 462 kts 221°
2026-05-06 10:29 -29.86666 26.15349 37950 ft 463 kts 221°
2026-05-06 10:30 -29.92001 26.11024 37948 ft 464 kts 221°
2026-05-06 10:30 -29.97294 26.06727 37948 ft 464 kts 221°
2026-05-06 10:31 -30.01664 26.03174 37930 ft 464 kts 221°
2026-05-06 10:31 -30.06957 25.98867 37930 ft 463 kts 221°
2026-05-06 10:32 -30.12183 25.94608 37951 ft 461 kts 221°
2026-05-06 10:32 -30.17393 25.90356 37922 ft 458 kts 220°
2026-05-06 10:33 -30.22585 25.86119 37921 ft 456 kts 220°
2026-05-06 10:33 -30.27722 25.81913 37901 ft 454 kts 220°
2026-05-06 10:34 -30.32901 25.77666 37910 ft 454 kts 220°
2026-05-06 10:34 -30.38005 25.73477 37904 ft 455 kts 220°
2026-05-06 10:35 -30.43170 25.69233 37909 ft 457 kts 220°
2026-05-06 10:35 -30.48431 25.64905 37903 ft 459 kts 220°
2026-05-06 10:36 -30.53612 25.60637 37916 ft 461 kts 219°
2026-05-06 10:36 -30.58852 25.56315 37913 ft 463 kts 219°
2026-05-06 10:37 -30.64081 25.51997 37908 ft 463 kts 219°
2026-05-06 10:37 -30.69404 25.47596 37912 ft 463 kts 219°
2026-05-06 10:38 -30.74575 25.43313 37918 ft 463 kts 219°
2026-05-06 10:38 -30.79802 25.38978 37932 ft 462 kts 219°
2026-05-06 10:39 -30.85079 25.34595 37926 ft 462 kts 219°
2026-05-06 10:39 -30.90271 25.30278 37931 ft 460 kts 219°
2026-05-06 10:40 -30.95515 25.25911 38013 ft 459 kts 218°
2026-05-06 10:40 -31.00609 25.21662 38013 ft 457 kts 219°
2026-05-06 10:41 -31.05755 25.17365 38014 ft 455 kts 219°
2026-05-06 10:41 -31.10927 25.13040 37982 ft 455 kts 219°
2026-05-06 10:42 -31.16059 25.08747 37959 ft 452 kts 219°
2026-05-06 10:42 -31.21150 25.04482 37929 ft 450 kts 219°
2026-05-06 10:43 -31.26251 25.00200 37901 ft 449 kts 218°
2026-05-06 10:44 -31.33763 24.93882 37900 ft 446 kts 218°
2026-05-06 10:44 -31.38792 24.89646 37886 ft 444 kts 218°
2026-05-06 10:45 -31.43840 24.85388 37884 ft 443 kts 218°
2026-05-06 10:45 -31.48786 24.81210 37871 ft 442 kts 218°
2026-05-06 10:46 -31.53749 24.77012 37884 ft 442 kts 218°
2026-05-06 10:46 -31.58801 24.72734 37879 ft 442 kts 218°
2026-05-06 10:47 -31.63765 24.68524 37854 ft 444 kts 218°
2026-05-06 10:47 -31.68737 24.64302 37851 ft 445 kts 218°
2026-05-06 10:48 -31.73718 24.60068 37841 ft 446 kts 218°
2026-05-06 10:48 -31.78850 24.55698 37833 ft 448 kts 218°
2026-05-06 10:49 -31.83889 24.51401 37829 ft 449 kts 218°
2026-05-06 10:49 -31.88911 24.47113 37799 ft 450 kts 218°
2026-05-06 10:50 -31.93959 24.42797 37797 ft 451 kts 218°
2026-05-06 10:50 -31.99033 24.38453 37760 ft 451 kts 218°
2026-05-06 10:51 -32.04108 24.34102 37765 ft 450 kts 217°
2026-05-06 10:51 -32.09109 24.29808 37755 ft 449 kts 217°
2026-05-06 10:52 -32.14166 24.25460 37760 ft 449 kts 217°
2026-05-06 10:52 -32.19252 24.21080 37757 ft 449 kts 217°
2026-05-06 10:53 -32.24303 24.16725 37736 ft 449 kts 217°
2026-05-06 10:53 -32.29353 24.12365 37747 ft 450 kts 217°
2026-05-06 10:54 -32.34395 24.08004 37734 ft 451 kts 217°
2026-05-06 10:54 -32.39413 24.03658 37721 ft 450 kts 217°
2026-05-06 10:55 -32.44479 23.99267 37722 ft 448 kts 217°
2026-05-06 10:55 -32.49497 23.94907 37717 ft 446 kts 217°
2026-05-06 10:56 -32.54449 23.90598 37714 ft 444 kts 217°
2026-05-06 10:56 -32.59438 23.86249 37692 ft 443 kts 217°
2026-05-06 10:57 -32.64360 23.81953 37692 ft 442 kts 217°
2026-05-06 10:57 -32.69277 23.77656 37695 ft 442 kts 217°
2026-05-06 10:58 -32.74239 23.73313 37692 ft 442 kts 216°
2026-05-06 10:58 -32.79201 23.68964 37695 ft 442 kts 216°
2026-05-06 10:59 -32.84116 23.64649 37689 ft 442 kts 216°
2026-05-06 10:59 -32.89129 23.60242 37684 ft 442 kts 216°
2026-05-06 11:00 -32.94049 23.55911 37657 ft 442 kts 216°
2026-05-06 11:00 -32.96568 23.53694 37072 ft 449 kts 215°
2026-05-06 11:00 -32.99074 23.51490 36475 ft 448 kts 214°
2026-05-06 11:00 -33.01579 23.49284 35827 ft 448 kts 213°
2026-05-06 11:01 -33.04088 23.47075 35128 ft 449 kts 213°
2026-05-06 11:01 -33.06579 23.44880 34396 ft 452 kts 213°
2026-05-06 11:01 -33.09115 23.42643 33788 ft 450 kts 212°
2026-05-06 11:01 -33.11634 23.40418 33166 ft 447 kts 212°
2026-05-06 11:02 -33.14107 23.38225 32638 ft 442 kts 211°
2026-05-06 11:02 -33.16560 23.36055 32146 ft 437 kts 211°
2026-05-06 11:02 -33.18986 23.33910 31636 ft 432 kts 211°
2026-05-06 11:02 -33.21364 23.31801 31152 ft 428 kts 211°
2026-05-06 11:03 -33.23720 23.29714 30640 ft 424 kts 211°
2026-05-06 11:03 -33.26103 23.27604 30212 ft 421 kts 210°
2026-05-06 11:03 -33.28481 23.25497 29721 ft 422 kts 211°
2026-05-06 11:03 -33.30870 23.23377 29122 ft 424 kts 211°
2026-05-06 11:04 -33.33228 23.21288 28867 ft 417 kts 211°
2026-05-06 11:04 -33.35523 23.19243 28456 ft 409 kts 211°
2026-05-06 11:04 -33.37802 23.17214 27744 ft 409 kts 211°
2026-05-06 11:04 -33.40055 23.15204 27097 ft 406 kts 211°
2026-05-06 11:05 -33.42305 23.13195 26624 ft 401 kts 211°
2026-05-06 11:05 -33.44543 23.11199 26126 ft 396 kts 211°
2026-05-06 11:05 -33.46712 23.09264 25643 ft 391 kts 210°
2026-05-06 11:05 -33.48884 23.07326 25181 ft 385 kts 211°
2026-05-06 11:06 -33.51028 23.05404 24715 ft 381 kts 211°
2026-05-06 11:06 -33.53142 23.03517 24210 ft 376 kts 210°
2026-05-06 11:06 -33.55225 23.01662 23762 ft 371 kts 210°
2026-05-06 11:06 -33.57280 22.99819 23293 ft 367 kts 210°
2026-05-06 11:07 -33.59320 22.97991 22754 ft 363 kts 210°
2026-05-06 11:07 -33.61324 22.96196 22302 ft 357 kts 210°
2026-05-06 11:07 -33.63293 22.94421 21866 ft 351 kts 210°
2026-05-06 11:07 -33.65240 22.92674 21388 ft 348 kts 209°
2026-05-06 11:08 -33.67164 22.90957 20985 ft 342 kts 209°
2026-05-06 11:08 -33.69052 22.89276 20540 ft 339 kts 209°
2026-05-06 11:08 -33.70798 22.87331 20049 ft 349 kts 223°
2026-05-06 11:08 -33.72157 22.84913 19609 ft 355 kts 233°
2026-05-06 11:09 -33.73110 22.82102 19202 ft 366 kts 244°
2026-05-06 11:09 -33.73830 22.79142 18668 ft 369 kts 246°
2026-05-06 11:09 -33.74510 22.76176 18180 ft 366 kts 245°
2026-05-06 11:09 -33.75190 22.73258 17680 ft 360 kts 245°
2026-05-06 11:10 -33.75860 22.70383 17223 ft 355 kts 246°
2026-05-06 11:10 -33.76520 22.67561 16784 ft 348 kts 245°
2026-05-06 11:10 -33.77180 22.64785 16331 ft 343 kts 244°
2026-05-06 11:10 -33.77832 22.62061 15955 ft 337 kts 244°
2026-05-06 11:11 -33.78488 22.59365 15496 ft 336 kts 244°
2026-05-06 11:11 -33.79125 22.56677 15129 ft 332 kts 244°
2026-05-06 11:11 -33.79757 22.54021 14690 ft 331 kts 244°
2026-05-06 11:11 -33.80397 22.51360 14283 ft 330 kts 244°
2026-05-06 11:12 -33.81231 22.48842 13759 ft 318 kts 228°
2026-05-06 11:12 -33.82645 22.46893 12897 ft 317 kts 217°
2026-05-06 11:12 -33.84220 22.44984 11996 ft 324 kts 218°
2026-05-06 11:12 -33.85815 22.43034 11151 ft 332 kts 219°
2026-05-06 11:13 -33.87448 22.41070 10241 ft 332 kts 219°
2026-05-06 11:13 -33.89049 22.39044 9709 ft 329 kts 221°
2026-05-06 11:13 -33.90535 22.37103 9551 ft 308 kts 220°
2026-05-06 11:13 -33.91992 22.35293 9398 ft 295 kts 219°
2026-05-06 11:14 -33.93399 22.33556 9282 ft 280 kts 219°
2026-05-06 11:14 -33.94716 22.31920 9187 ft 266 kts 219°
2026-05-06 11:14 -33.95968 22.30356 9103 ft 253 kts 219°
2026-05-06 11:14 -33.97167 22.28854 9014 ft 241 kts 218°
2026-05-06 11:15 -33.98255 22.27370 8901 ft 236 kts 231°
2026-05-06 11:15 -33.98719 22.25463 8783 ft 245 kts 262°
2026-05-06 11:15 -33.98290 22.23451 8575 ft 257 kts 295°
2026-05-06 11:15 -33.97117 22.21803 8327 ft 261 kts 311°
2026-05-06 11:16 -33.95841 22.20247 8005 ft 262 kts 310°
2026-05-06 11:16 -33.94546 22.18710 7743 ft 259 kts 310°
2026-05-06 11:16 -33.93556 22.16982 7393 ft 246 kts 279°
2026-05-06 11:16 -33.93408 22.15026 6814 ft 227 kts 245°
2026-05-06 11:17 -33.94097 22.13492 6412 ft 196 kts 211°
2026-05-06 11:17 -33.95241 22.12857 5860 ft 180 kts 181°
2026-05-06 11:17 -33.96472 22.13005 5358 ft 179 kts 160°
2026-05-06 11:17 -33.97519 22.13791 4904 ft 179 kts 139°
2026-05-06 11:18 -33.98203 22.15051 4452 ft 184 kts 118°
2026-05-06 11:18 -33.98651 22.16491 4001 ft 183 kts 118°
2026-05-06 11:18 -33.99094 22.17923 3536 ft 182 kts 118°
2026-05-06 11:18 -33.99519 22.19312 3329 ft 167 kts 118°
2026-05-06 11:19 -33.99917 22.20598 3013 ft 163 kts 119°
2026-05-06 11:19 -34.00310 22.21878 2753 ft 161 kts 118°
2026-05-06 11:19 -34.00569 22.22727 2610 ft 158 kts 118°
2026-05-06 11:19 -34.00898 22.23988 2554 ft 165 kts 107°
2026-05-06 11:20 -34.00905 22.25895 2364 ft 171 kts 103°
2026-05-06 11:20 -34.00911 22.26830 2274 ft 166 kts 101°
2026-05-06 11:20 -34.00866 22.28170 2041 ft 151 kts 101°
2026-05-06 11:20 -34.00823 22.29389 1837 ft 140 kts 101°
2026-05-06 11:21 -34.00788 22.30540 1693 ft 134 kts 100°
2026-05-06 11:21 -34.00757 22.31671 1446 ft 135 kts 100°
2026-05-06 11:21 -34.00715 22.32795 1254 ft 134 kts 98°
2026-05-06 11:21 -34.00674 22.33931 1109 ft 138 kts 96°
2026-05-06 11:22 -34.00635 22.35043 955 ft 127 kts 99°
2026-05-06 11:22 -34.00605 22.36172 794 ft 138 kts 96°
2026-05-06 11:22 -34.00567 22.37262 658 ft 118 kts 89°
2026-05-06 11:22 -34.00546 22.38030 654 ft 58 kts 88°
2026-05-06 11:23 -34.00536 22.38374 650 ft 36 kts 89°
2026-05-06 11:23 -34.00528 22.38594 651 ft 25 kts 87°
2026-05-06 11:23 -34.00523 22.38793 654 ft 23 kts 89°
2026-05-06 11:23 -34.00459 22.38918 659 ft 19 kts
2026-05-06 11:24 -34.00339 22.38893 654 ft 17 kts 318°
2026-05-06 11:24 -34.00312 22.38757 646 ft 17 kts 269°
2026-05-06 11:24 -34.00316 22.38619 645 ft 16 kts 268°
2026-05-06 11:24 -34.00321 22.38485 645 ft 16 kts 267°
2026-05-06 11:25 -34.00327 22.38357 644 ft 15 kts 267°
2026-05-06 11:25 -34.00327 22.38235 645 ft 14 kts 279°
2026-05-06 11:25 -34.00292 22.38130 643 ft 12 kts 281°
2026-05-06 11:25 -34.00249 22.38075 643 ft 9 kts 348°
2026-05-06 11:26 -34.00211 22.38108 639 ft 6 kts 62°
2026-05-06 11:26 -34.00201 22.38127 642 ft 0 kts 57°